PSA5262 KHSV-KDCA

Flight info

Callsign PSA5262
Flight time N/A
Altitude 39000
Route SYI SWAPP SITTR TRUPS5
Aircraft CRJ9/M-SDFGIRWY/S

Departure

Time 2026-04-22 00:41
Airport Huntsville International Airport (KHSV)

Arrival

Time N/A
Airport Ronald Reagan Washington National Airport (KDCA)
Time Latitude Longitude Altitude Speed Heading
2026-04-22 00:01 34.64706 -86.77539 637 ft 0 kts 271°
2026-04-22 00:09 34.64706 -86.77530 637 ft 0 kts 271°
2026-04-22 00:31 34.64706 -86.77527 637 ft 1 kts 271°
2026-04-22 00:31 34.64706 -86.77509 637 ft 3 kts 271°
2026-04-22 00:31 34.64706 -86.77486 637 ft 3 kts 271°
2026-04-22 00:31 34.64706 -86.77462 637 ft 3 kts 262°
2026-04-22 00:32 34.64714 -86.77440 637 ft 3 kts 225°
2026-04-22 00:32 34.64732 -86.77428 637 ft 3 kts 189°
2026-04-22 00:32 34.64738 -86.77428 637 ft 0 kts 181°
2026-04-22 00:33 34.64737 -86.77428 637 ft 0 kts 181°
2026-04-22 00:35 34.64728 -86.77428 637 ft 4 kts 181°
2026-04-22 00:35 34.64693 -86.77433 637 ft 8 kts 188°
2026-04-22 00:35 34.64613 -86.77437 637 ft 13 kts 178°
2026-04-22 00:35 34.64535 -86.77438 637 ft 10 kts 179°
2026-04-22 00:36 34.64487 -86.77486 637 ft 12 kts 263°
2026-04-22 00:36 34.64487 -86.77603 637 ft 16 kts 271°
2026-04-22 00:36 34.64489 -86.77736 637 ft 14 kts 270°
2026-04-22 00:36 34.64490 -86.77829 637 ft 8 kts 270°
2026-04-22 00:37 34.64491 -86.77886 637 ft 7 kts 273°
2026-04-22 00:37 34.64498 -86.77949 637 ft 9 kts 295°
2026-04-22 00:37 34.64557 -86.77975 637 ft 11 kts 360°
2026-04-22 00:37 34.64642 -86.77975 637 ft 13 kts
2026-04-22 00:38 34.64744 -86.77974 637 ft 16 kts
2026-04-22 00:38 34.64862 -86.77971 637 ft 18 kts
2026-04-22 00:38 34.64985 -86.77968 637 ft 18 kts
2026-04-22 00:38 34.65108 -86.77966 637 ft 17 kts
2026-04-22 00:39 34.65214 -86.77964 637 ft 14 kts 357°
2026-04-22 00:39 34.65246 -86.78039 637 ft 11 kts 268°
2026-04-22 00:39 34.65246 -86.78129 637 ft 11 kts 270°
2026-04-22 00:39 34.65231 -86.78204 637 ft 8 kts 208°
2026-04-22 00:40 34.65161 -86.78213 637 ft 17 kts 181°
2026-04-22 00:40 34.64831 -86.78217 637 ft 82 kts 182°
2026-04-22 00:40 34.64042 -86.78232 637 ft 143 kts 181°
2026-04-22 00:40 34.62928 -86.78263 987 ft 165 kts 181°
2026-04-22 00:41 34.61795 -86.78280 1906 ft 158 kts 181°
2026-04-22 00:41 34.60683 -86.78216 2651 ft 167 kts 177°
2026-04-22 00:41 34.59461 -86.78069 3159 ft 190 kts 178°
2026-04-22 00:41 34.58045 -86.77903 3642 ft 220 kts 178°
2026-04-22 00:42 34.56436 -86.77769 4246 ft 242 kts 181°
2026-04-22 00:42 34.54723 -86.78105 4968 ft 247 kts 207°
2026-04-22 00:42 34.53555 -86.79458 6289 ft 234 kts 241°
2026-04-22 00:42 34.53230 -86.81423 7088 ft 250 kts 276°
2026-04-22 00:43 34.53949 -86.83428 7754 ft 273 kts 307°
2026-04-22 00:43 34.55356 -86.85017 8676 ft 282 kts 317°
2026-04-22 00:43 34.56871 -86.86563 9419 ft 291 kts 316°
2026-04-22 00:43 34.58441 -86.88171 9847 ft 291 kts 316°
2026-04-22 00:44 34.60017 -86.89671 9969 ft 294 kts 326°
2026-04-22 00:44 34.61974 -86.90471 10008 ft 301 kts 350°
2026-04-22 00:44 34.64050 -86.90590 10519 ft 302 kts 356°
2026-04-22 00:44 34.66145 -86.90612 11599 ft 299 kts 356°
2026-04-22 00:45 34.68237 -86.90628 12594 ft 301 kts 356°
2026-04-22 00:45 34.70345 -86.90645 13443 ft 306 kts 356°
2026-04-22 00:45 34.72498 -86.90666 14142 ft 317 kts 356°
2026-04-22 00:45 34.74795 -86.90694 14541 ft 338 kts 356°
2026-04-22 00:46 34.77221 -86.90733 14839 ft 359 kts 356°
2026-04-22 00:46 34.79769 -86.90773 15229 ft 376 kts 357°
2026-04-22 00:46 34.82396 -86.90817 15894 ft 383 kts 356°
2026-04-22 00:46 34.85096 -86.90865 16646 ft 387 kts 356°
2026-04-22 00:47 34.87823 -86.90916 17379 ft 392 kts 356°
2026-04-22 00:47 34.90554 -86.90968 18084 ft 396 kts 356°
2026-04-22 00:47 34.93290 -86.91021 18785 ft 399 kts 356°
2026-04-22 00:47 34.96086 -86.91059 19495 ft 402 kts 356°
2026-04-22 00:48 34.98887 -86.91093 20158 ft 405 kts 356°
2026-04-22 00:48 35.01727 -86.91028 20792 ft 410 kts
2026-04-22 00:48 35.04517 -86.90203 21386 ft 418 kts 18°
2026-04-22 00:48 35.07096 -86.88528 21941 ft 426 kts 32°
2026-04-22 00:49 35.09374 -86.86172 22470 ft 432 kts 39°
2026-04-22 00:49 35.11648 -86.83731 22982 ft 435 kts 38°
2026-04-22 00:49 35.13927 -86.81280 23489 ft 438 kts 38°
2026-04-22 00:49 35.16235 -86.78792 23970 ft 441 kts 38°
2026-04-22 00:50 35.18534 -86.76311 24416 ft 445 kts 38°
2026-04-22 00:50 35.20873 -86.73782 24821 ft 449 kts 38°
2026-04-22 00:50 35.23211 -86.71251 25218 ft 452 kts 38°
2026-04-22 00:50 35.25555 -86.68711 25590 ft 456 kts 38°
2026-04-22 00:51 35.27932 -86.66131 25968 ft 459 kts 38°
2026-04-22 00:51 35.30332 -86.63524 26330 ft 462 kts 38°
2026-04-22 00:51 35.32738 -86.60905 26689 ft 465 kts 38°
2026-04-22 00:51 35.35089 -86.58154 27002 ft 471 kts 41°
2026-04-22 00:52 35.37376 -86.55231 27337 ft 474 kts 43°
2026-04-22 00:52 35.39653 -86.52307 27652 ft 477 kts 42°
2026-04-22 00:52 35.41969 -86.49302 27941 ft 480 kts 42°
2026-04-22 00:52 35.44319 -86.46350 28262 ft 481 kts 41°
2026-04-22 00:53 35.46693 -86.43447 28535 ft 484 kts 40°
2026-04-22 00:53 35.49091 -86.40525 28811 ft 486 kts 40°
2026-04-22 00:53 35.51505 -86.37627 29080 ft 488 kts 39°
2026-04-22 00:53 35.53948 -86.34717 29337 ft 490 kts 39°
2026-04-22 00:54 35.55597 -86.32775 29509 ft 491 kts 39°
2026-04-22 00:54 35.58067 -86.29867 29748 ft 494 kts 39°
2026-04-22 00:54 35.60548 -86.26956 30029 ft 494 kts 38°
2026-04-22 00:54 35.63025 -86.24062 30386 ft 493 kts 38°
2026-04-22 00:55 35.65545 -86.21142 30745 ft 492 kts 38°
2026-04-22 00:55 35.68050 -86.18248 31011 ft 493 kts 38°
2026-04-22 00:55 35.73036 -86.12530 31627 ft 491 kts 38°
2026-04-22 00:56 35.75539 -86.09669 31920 ft 490 kts 38°
2026-04-22 00:56 35.78044 -86.06815 32178 ft 490 kts 37°
2026-04-22 00:56 35.80076 -86.04508 32363 ft 491 kts 37°
2026-04-22 00:56 35.82571 -86.01674 32645 ft 490 kts 37°
2026-04-22 00:57 35.85055 -85.98853 32877 ft 490 kts 37°
2026-04-22 00:57 35.87567 -85.96014 33123 ft 490 kts 37°
2026-04-22 00:57 35.90089 -85.93168 33381 ft 489 kts 37°
2026-04-22 00:57 35.92611 -85.90322 33611 ft 489 kts 37°
2026-04-22 00:58 35.95122 -85.87492 33823 ft 489 kts 37°
2026-04-22 00:58 35.97613 -85.84694 34027 ft 489 kts 37°
2026-04-22 00:58 36.00131 -85.81871 34269 ft 488 kts 37°
2026-04-22 00:58 36.02632 -85.79062 34736 ft 481 kts 36°
2026-04-22 00:59 36.05091 -85.76308 35003 ft 480 kts 36°
2026-04-22 00:59 36.07582 -85.73521 35080 ft 482 kts 36°
2026-04-22 00:59 36.10067 -85.70730 35282 ft 482 kts 36°
2026-04-22 00:59 36.12548 -85.67954 35513 ft 480 kts 36°
2026-04-22 01:00 36.15020 -85.65180 35695 ft 480 kts 37°
2026-04-22 01:00 36.17497 -85.62402 35871 ft 480 kts 36°
2026-04-22 01:00 36.19994 -85.59624 36048 ft 479 kts 36°
2026-04-22 01:00 36.22435 -85.56907 36218 ft 479 kts 36°
2026-04-22 01:01 36.24935 -85.54103 36390 ft 479 kts 36°
2026-04-22 01:01 36.27389 -85.51371 36550 ft 478 kts 36°
2026-04-22 01:01 36.29866 -85.48621 36666 ft 479 kts 36°
2026-04-22 01:01 36.32336 -85.45879 36826 ft 478 kts 36°
2026-04-22 01:02 36.34828 -85.43112 36985 ft 478 kts 36°
2026-04-22 01:02 36.37422 -85.40579 37112 ft 468 kts 24°
2026-04-22 01:02 36.40338 -85.39038 37227 ft 456 kts 11°
2026-04-22 01:02 36.43358 -85.37736 37362 ft 460 kts 17°
2026-04-22 01:03 36.46197 -85.35791 37484 ft 471 kts 29°
2026-04-22 01:03 36.48730 -85.33150 37609 ft 478 kts 38°
2026-04-22 01:03 36.50997 -85.30348 37735 ft 479 kts 39°
2026-04-22 01:03 36.53426 -85.27314 37875 ft 479 kts 39°
2026-04-22 01:04 36.55804 -85.24519 37999 ft 476 kts 37°
2026-04-22 01:04 36.58271 -85.21653 38124 ft 479 kts 41°
2026-04-22 01:04 36.60414 -85.18491 38228 ft 485 kts 49°
2026-04-22 01:04 36.62188 -85.14873 38293 ft 492 kts 59°
2026-04-22 01:05 36.63598 -85.10963 38424 ft 493 kts 64°
2026-04-22 01:05 36.64863 -85.06984 38544 ft 494 kts 66°
2026-04-22 01:05 36.66070 -85.03034 38653 ft 494 kts 66°
2026-04-22 01:05 36.67288 -84.99037 38788 ft 493 kts 66°
2026-04-22 01:06 36.68509 -84.95024 38896 ft 493 kts 66°
2026-04-22 01:06 36.69731 -84.91003 39000 ft 493 kts 66°
2026-04-22 01:06 36.72139 -84.83061 39181 ft 493 kts 66°
2026-04-22 01:07 36.74581 -84.75048 39243 ft 494 kts 65°
2026-04-22 01:07 36.77048 -84.67000 39241 ft 493 kts 66°
2026-04-22 01:08 36.79462 -84.59071 39240 ft 492 kts 66°
2026-04-22 01:08 36.81890 -84.51056 39226 ft 492 kts 66°
2026-04-22 01:09 36.84305 -84.43050 39221 ft 492 kts 66°
2026-04-22 01:09 36.86709 -84.35056 39221 ft 492 kts 66°
2026-04-22 01:10 36.89098 -84.27083 39223 ft 492 kts 66°
2026-04-22 01:10 36.91495 -84.19059 39228 ft 494 kts 66°
2026-04-22 01:11 36.93899 -84.10989 39230 ft 494 kts 66°
2026-04-22 01:11 36.96291 -84.02934 39231 ft 494 kts 66°
2026-04-22 01:12 36.98681 -83.94861 39232 ft 496 kts 66°
2026-04-22 01:12 37.01079 -83.86737 39233 ft 498 kts 66°
2026-04-22 01:13 37.03455 -83.78666 39234 ft 497 kts 66°
2026-04-22 01:13 37.05843 -83.70530 39236 ft 497 kts 66°
2026-04-22 01:14 37.08223 -83.62398 39238 ft 497 kts 66°
2026-04-22 01:14 37.10604 -83.54234 39230 ft 497 kts 66°
2026-04-22 01:15 37.12969 -83.46104 39234 ft 497 kts 66°
2026-04-22 01:15 37.15320 -83.38001 39231 ft 497 kts 66°
2026-04-22 01:16 37.17676 -83.29853 39228 ft 497 kts 66°
2026-04-22 01:16 37.20023 -83.21710 39225 ft 497 kts 66°
2026-04-22 01:17 37.22372 -83.13537 39231 ft 496 kts 66°
2026-04-22 01:17 37.24701 -83.05411 39234 ft 495 kts 66°
2026-04-22 01:18 37.27029 -82.97264 39237 ft 495 kts 66°
2026-04-22 01:18 37.29340 -82.89150 39241 ft 495 kts 66°
2026-04-22 01:19 37.31662 -82.80974 39244 ft 496 kts 66°
2026-04-22 01:19 37.33966 -82.72836 39247 ft 496 kts 66°
2026-04-22 01:20 37.36277 -82.64650 39249 ft 496 kts 66°
2026-04-22 01:20 37.38581 -82.56463 39250 ft 497 kts 66°
2026-04-22 01:21 37.40877 -82.48277 39261 ft 495 kts 66°
2026-04-22 01:21 37.43169 -82.40083 39271 ft 496 kts 66°
2026-04-22 01:22 37.45457 -82.31877 39271 ft 496 kts 66°
2026-04-22 01:22 37.47736 -82.23677 39274 ft 496 kts 66°
2026-04-22 01:23 37.50013 -82.15461 39275 ft 497 kts 66°
2026-04-22 01:23 37.52282 -82.07247 39275 ft 497 kts 66°
2026-04-22 01:24 37.54554 -81.98994 39276 ft 497 kts 66°
2026-04-22 01:24 37.56798 -81.90823 39277 ft 496 kts 66°
2026-04-22 01:25 37.59050 -81.82593 39278 ft 496 kts 66°
2026-04-22 01:25 37.61301 -81.74341 39276 ft 497 kts 66°
2026-04-22 01:26 37.63540 -81.66109 39277 ft 497 kts 67°
2026-04-22 01:26 37.65782 -81.57838 39279 ft 496 kts 66°
2026-04-22 01:27 37.67998 -81.49658 39276 ft 496 kts 66°
2026-04-22 01:27 37.70239 -81.41418 39270 ft 496 kts 67°
2026-04-22 01:28 37.72455 -81.33152 39260 ft 495 kts 67°
2026-04-22 01:28 37.74652 -81.24906 39251 ft 495 kts 67°
2026-04-22 01:29 37.76845 -81.16655 39243 ft 494 kts 67°
2026-04-22 01:29 37.79191 -81.08582 39240 ft 489 kts 61°
2026-04-22 01:30 37.82059 -81.00801 39239 ft 489 kts 60°
2026-04-22 01:30 37.84876 -80.92964 39238 ft 488 kts 60°
2026-04-22 01:31 37.87649 -80.85138 39234 ft 487 kts 61°
2026-04-22 01:31 37.90432 -80.77306 39226 ft 487 kts 60°
2026-04-22 01:32 37.93213 -80.69464 39225 ft 486 kts 60°
2026-04-22 01:32 37.95961 -80.61710 39226 ft 485 kts 60°
2026-04-22 01:33 37.98751 -80.53917 39226 ft 486 kts 61°
2026-04-22 01:33 38.01514 -80.46089 39226 ft 484 kts 61°
2026-04-22 01:34 38.04234 -80.38333 39226 ft 484 kts 61°
2026-04-22 01:34 38.06524 -80.31785 39229 ft 485 kts 61°
2026-04-22 01:35 38.09723 -80.22677 39233 ft 484 kts 60°
2026-04-22 01:35 38.12020 -80.16209 39236 ft 484 kts 61°
2026-04-22 01:36 38.14804 -80.08388 39239 ft 484 kts 60°
2026-04-22 01:36 38.17572 -80.00627 39243 ft 484 kts 60°
2026-04-22 01:37 38.20325 -79.92822 39244 ft 482 kts 61°
2026-04-22 01:37 38.22854 -79.85611 39246 ft 479 kts 61°
2026-04-22 01:38 38.25572 -79.77846 39252 ft 481 kts 61°
2026-04-22 01:38 38.28268 -79.70095 39248 ft 481 kts 62°
2026-04-22 01:39 38.30972 -79.62299 38611 ft 480 kts 61°
2026-04-22 01:39 38.32324 -79.58386 37898 ft 480 kts 61°
2026-04-22 01:39 38.33656 -79.54509 37179 ft 480 kts 61°
2026-04-22 01:40 38.34995 -79.50595 36440 ft 480 kts 61°
2026-04-22 01:40 38.36324 -79.46699 35667 ft 481 kts 61°
2026-04-22 01:40 38.37661 -79.42774 34869 ft 481 kts 61°
2026-04-22 01:40 38.38993 -79.38858 34052 ft 482 kts 61°
2026-04-22 01:41 38.40307 -79.34991 33222 ft 482 kts 61°
2026-04-22 01:41 38.41633 -79.30991 32341 ft 485 kts 63°
2026-04-22 01:41 38.42717 -79.26892 31526 ft 488 kts 69°
2026-04-22 01:41 38.43524 -79.22760 30887 ft 485 kts 73°
2026-04-22 01:42 38.44222 -79.18575 30241 ft 480 kts 73°
2026-04-22 01:42 38.44924 -79.14429 29596 ft 475 kts 73°
2026-04-22 01:42 38.45635 -79.10305 28958 ft 471 kts 73°
2026-04-22 01:42 38.46337 -79.06274 28355 ft 465 kts 73°
2026-04-22 01:43 38.47035 -79.02270 27982 ft 455 kts 72°
2026-04-22 01:43 38.47720 -78.98363 27487 ft 448 kts 73°
2026-04-22 01:43 38.48261 -78.95253 27086 ft 444 kts 73°
2026-04-22 01:43 38.48927 -78.91406 26589 ft 438 kts 73°
2026-04-22 01:44 38.49580 -78.87636 26097 ft 435 kts 73°
2026-04-22 01:44 38.50218 -78.83889 25610 ft 435 kts 73°
2026-04-22 01:44 38.50817 -78.80111 25116 ft 433 kts 74°
2026-04-22 01:44 38.51405 -78.76362 24625 ft 430 kts 74°
2026-04-22 01:45 38.51990 -78.72621 24139 ft 426 kts 74°
2026-04-22 01:45 38.52569 -78.68930 23657 ft 422 kts 74°
2026-04-22 01:45 38.53147 -78.65233 23193 ft 418 kts 74°
2026-04-22 01:45 38.53734 -78.61614 22767 ft 413 kts 74°
2026-04-22 01:46 38.54307 -78.58042 22343 ft 408 kts 74°
2026-04-22 01:46 38.54859 -78.54573 22089 ft 402 kts 74°
2026-04-22 01:46 38.55410 -78.51088 21839 ft 402 kts 74°
2026-04-22 01:46 38.55966 -78.47562 21588 ft 404 kts 74°
2026-04-22 01:47 38.56521 -78.44042 21338 ft 404 kts 74°
2026-04-22 01:47 38.57076 -78.40519 21086 ft 401 kts 74°
2026-04-22 01:47 38.57653 -78.37033 20850 ft 399 kts 72°
2026-04-22 01:47 38.58257 -78.33628 20411 ft 398 kts 72°
2026-04-22 01:48 38.58860 -78.30174 19957 ft 395 kts 72°
2026-04-22 01:48 38.59457 -78.26752 19506 ft 391 kts 72°
2026-04-22 01:48 38.60194 -78.23440 19032 ft 385 kts 65°
2026-04-22 01:48 38.61169 -78.20266 18595 ft 379 kts 62°
2026-04-22 01:49 38.62196 -78.17204 18161 ft 375 kts 62°
2026-04-22 01:49 38.63204 -78.14133 17725 ft 372 kts 62°
2026-04-22 01:49 38.64194 -78.11087 17292 ft 368 kts 62°
2026-04-22 01:49 38.65171 -78.08085 16830 ft 366 kts 62°
2026-04-22 01:50 38.66141 -78.05093 16371 ft 363 kts 62°
2026-04-22 01:50 38.67108 -78.02089 15912 ft 362 kts 62°
2026-04-22 01:50 38.68058 -77.99132 15465 ft 358 kts 61°
2026-04-22 01:50 38.68997 -77.96196 15023 ft 354 kts 61°
2026-04-22 01:51 38.69911 -77.93331 14593 ft 350 kts 61°
2026-04-22 01:51 38.70840 -77.90425 14155 ft 346 kts 61°
2026-04-22 01:51 38.71736 -77.87616 13730 ft 343 kts 61°
2026-04-22 01:51 38.72659 -77.84816 13304 ft 337 kts 57°
2026-04-22 01:52 38.73789 -77.82268 12891 ft 327 kts 48°
2026-04-22 01:52 38.75168 -77.79987 12560 ft 316 kts 41°
2026-04-22 01:52 38.76596 -77.77934 12241 ft 309 kts 39°
2026-04-22 01:52 38.78029 -77.75907 11921 ft 304 kts 39°
2026-04-22 01:53 38.79436 -77.73894 11603 ft 303 kts 40°
2026-04-22 01:53 38.80843 -77.71873 11284 ft 304 kts 40°
2026-04-22 01:53 38.82252 -77.69828 10990 ft 305 kts 42°
2026-04-22 01:53 38.83645 -77.67753 10633 ft 308 kts 43°
2026-04-22 01:54 38.85027 -77.65681 10283 ft 304 kts 44°
2026-04-22 01:54 38.86383 -77.63644 9944 ft 300 kts 44°
2026-04-22 01:54 38.87720 -77.61631 9609 ft 298 kts 45°
2026-04-22 01:54 38.89075 -77.59586 9280 ft 295 kts 45°
2026-04-22 01:55 38.90391 -77.57604 8956 ft 297 kts 46°
2026-04-22 01:55 38.91734 -77.55579 8625 ft 294 kts 46°
2026-04-22 01:55 38.93044 -77.53601 8299 ft 293 kts 46°
2026-04-22 01:55 38.94269 -77.51492 8006 ft 293 kts 54°
2026-04-22 01:56 38.95249 -77.49202 7661 ft 294 kts 63°
2026-04-22 01:56 38.96048 -77.46812 7330 ft 291 kts 66°
2026-04-22 01:56 38.96800 -77.44409 7004 ft 289 kts 67°
2026-04-22 01:56 38.97567 -77.42024 6684 ft 290 kts 66°
2026-04-22 01:57 38.98357 -77.39603 6354 ft 288 kts 66°
2026-04-22 01:57 38.99136 -77.37243 6037 ft 286 kts 66°
2026-04-22 01:57 38.99899 -77.34944 5722 ft 280 kts 66°
2026-04-22 01:57 39.00362 -77.33548 5535 ft 274 kts 66°
2026-04-22 01:58 39.01093 -77.31368 5244 ft 265 kts 67°
2026-04-22 01:58 39.01820 -77.29204 5032 ft 252 kts 67°
2026-04-22 01:58 39.02490 -77.27209 5003 ft 242 kts 68°
2026-04-22 01:58 39.02940 -77.25180 4970 ft 235 kts 90°
2026-04-22 01:59 39.02608 -77.23175 4977 ft 224 kts 120°
2026-04-22 01:59 39.01743 -77.21574 5055 ft 212 kts 134°
2026-04-22 01:59 39.00747 -77.20221 5037 ft 205 kts 140°
2026-04-22 01:59 38.99706 -77.19025 5025 ft 199 kts 144°
2026-04-22 02:00 38.98636 -77.17909 5031 ft 197 kts 144°
2026-04-22 02:00 38.97621 -77.16736 5018 ft 195 kts 141°
2026-04-22 02:00 38.96631 -77.15512 4924 ft 200 kts 141°
2026-04-22 02:00 38.95622 -77.14296 4756 ft 193 kts 140°
2026-04-22 02:01 38.94789 -77.12918 4243 ft 199 kts 127°
2026-04-22 02:01 38.93981 -77.11521 3765 ft 194 kts 138°
2026-04-22 02:01 38.92950 -77.10465 3307 ft 186 kts 146°
2026-04-22 02:01 38.91954 -77.09345 2522 ft 198 kts 137°
2026-04-22 02:02 38.91058 -77.08013 1827 ft 192 kts 133°
2026-04-22 02:02 38.90194 -77.06736 1150 ft 184 kts 134°
2026-04-22 02:02 38.89307 -77.05622 674 ft 172 kts 142°
2026-04-22 02:02 38.88430 -77.04779 575 ft 143 kts 145°
2026-04-22 02:03 38.87658 -77.04133 320 ft 124 kts 151°
2026-04-22 02:03 38.86921 -77.03922 114 ft 101 kts 182°
2026-04-22 02:03 38.86218 -77.03917 546 ft 240 kts 174°